Regional Weather Roundup
Issued by NWS Newport/Morehead, NC

Current Version | Previous Version | Text Only | Print | Product List | Glossary On
Versions: 1 2 3 4 5 6 7 8 9 10 11 12 13 14 15 16 17 18 19 20 21 22 23 24 25 26 27 28 29 30 31 32 33 34 35 36 37 38 39 40 41 42 43 44 45 46 47 48 49 50
893
ASUS42 KMHX 010025
RWRMHX
WEATHER ROUNDUP FOR EASTERN NORTH CAROLINA
NATIONAL WEATHER SERVICE NEWPORT/MOREHEAD CITY NC
800 PM EDT TUE MAY 31 2016

NOTE: "FAIR" INDICATES FEW OR NO CLOUDS BELOW 12,000 FEET
WITH NO SIGNIFICANT WEATHER AND/OR OBSTRUCTIONS TO VISIBILITY

NCZ015>017-031-032-045>047-102-103-010100-
NORTH COAST

CITY           SKY/WX    TMP DP  RH WIND       PRES   REMARKS
EDENTON        CLOUDY    74  67  78 E7        29.96S
ELIZABETH CITY PTCLDY    73  67  81 E9        29.96R
KITTY HAWK     MOCLDY    69  66  89 NE6       29.96R
MANTEO         MOCLDY    70  69  96 E12       29.97S

$$

NCZ045>047-081-094-103-104-010100-
CENTRAL COAST

CITY           SKY/WX    TMP DP  RH WIND       PRES   REMARKS
FRISCO         MOCLDY    74  71  91 NE6       29.94R

$$

NCZ095-097-098-100-101-010100-
SOUTHERN COAST

CITY           SKY/WX    TMP DP  RH WIND       PRES   REMARKS
BEAUFORT       CLOUDY    77  73  87 E8        29.92R
CEDAR ISLAND   NOT AVBL
JACKSONVILLE   CLOUDY    74  72  93 NE8       29.91S
PINEY ISLAND   PTCLDY   N/A N/A N/A NE15      29.93R
WILMINGTON     CLOUDY    74  72  93 NE8       29.89S


$$

NCZ011>013-027>030-043-044-078>080-089-090>093-098-010100-
COASTAL PLAIN

CITY           SKY/WX    TMP DP  RH WIND       PRES   REMARKS
AHOSKIE        CLOUDY    75  70  86 SE3       29.96R
CLINTON        CLOUDY    75  73  92 NE3       29.93R
ELIZABETHTOWN  CLOUDY    74  72  92 CALM      29.91S
GOLDSBORO      MOCLDY    74  74 100 E6        29.92R
GREENVILLE     MOCLDY    73  73 100 E5        29.96R
HAVELOCK       CLOUDY    75  72  90 NE9       29.93R
KENANSVILLE    CLOUDY    74  71  88 E3        29.94R
KINSTON        PTCLDY    73  72  94 E3        29.94R
NEW BERN       CLOUDY    74  71  91 NE7       29.94R
RICHLANDS      HVY RAIN  73  72  94 NE8       29.93R FOG
ROCKY MOUNT    PTCLDY    76  70  82 SE3       29.94R
WASHINGTON     PTCLDY    73  71  92 NE5       29.94R
WHITEVILLE     CLOUDY    73  71  91 CALM      29.90S

$$

AMZ130-135-150-152-154-156-158-170-250-252-270-ANZ085-086-088-633-658-670-010100-
MARINE OBSERVATIONS

STATION/POSITION TIME  TEMP    WIND        PRES    WAVE   SWELL
                       AIR SEA DIR/SP/G            HT/PER HT/PER
                 (UTC) (F)     (DEG/KT/KT) (MB)    (FT/S) (FT/S)
CHESAPEAKE LIGHT 0000   70      90/  4/  4 1015.5
64 E VA BEACH    2350   68 67   30/  8/  8 1014.5    4/ 8   3/ 8
DUCK             0000                      1014.1
2 E DUCK         2311      69                N/A     3/ 8
OREGON INLET     0000                      1014.3
13E OREGON INLT  0000      70                N/A     4/ 8
HATTERAS CG      0000                      1013.4
DIAMOND BUOY     2350   76 81  180/ 21/ 23 1013.4    3/ 8   2/13
CAPE LOOKOUT     0000   73     140/  6/  6 1012.6
BEAUFORT LAB     0000                      1012.2
30 SE NEW RVR IN 2325      76                N/A     4/ 6
27 SE WRIGHTSVLE 0008   77 76  100/  6/ 12 1012.0
5 SE WRIGHTSVLE  0008   76 76   70/ 10/ 14 1012.3
225 S CAPE HAT   2350   77 77  150/ 12/ 14 1014.1    5/ 8   3/ 8
41 SE CHARLESTON 2350   76 78  280/  4/  4 1011.8    3/ 8   3/ 8

$$




USA.gov is the U.S. government's official web portal to all federal, state and local government web resources and services.